GALAXY 11 (G-11)

Last updated on Mon Mar 17 2025 00:02:38 GMT+0000 (Coordinated Universal Time)

1 26038U 99071A 25075.02733419 -.00000113 00000+0 00000+0 0 9997 2 26038 5.5730 76.0912 0011974 305.1611 173.3009 0.99023829 92472
UTC large
Height (km)
Speed (km/s)
/
Latitude / Longitude
Inclination (degrees)
Orbital Period (minutes)
Azimuth
Elevation
Range (km)
Doppler Factor

Next 0 passes for location: London (51.5072 / 0.1276)

Sorry there are no passes over London.
GALAXY 11 (G-11)